{"data":{"norad_id":65019,"epoch":"2026-09-19T22:57:17.831232Z","epoch_age_seconds":171132,"freshness":"FRESH","line1":"1 65019U 25161E   26262.95645638  .00006736  00000+0  21041-3 0  9992","line2":"2 65019  53.1576 110.3887 0001995  78.5138 281.6088 15.34384241 65205","mean_motion":15.34384241,"eccentricity":0.0001995,"inclination_deg":53.1576,"raan_deg":110.3887,"arg_perigee_deg":78.5138,"mean_anomaly_deg":281.6088,"bstar":0.00021041,"rev_number":6520,"period_min":93.848721951257,"perigee_km":461.38532270465,"apogee_km":464.11483664945,"semimajor_km":6840.887079677,"source":"CELESTRAK","updated_at":"2026-09-21T09:00:35.492185Z"}}